| time (UTC) | temp F | wind direction | speed knots | gust knots | rain 1hr in | rain 24hr in | rain mn in | humidity % | barometer mb |
| 20260503015707 | 90 | 68 | 0.0 | 1.7 | 0.00 | 0.00 | 0.00 | 14 | 1011.3 |
| 20260503015204 | 90 | 83 | 0.9 | 1.7 | 0.00 | 0.00 | 0.00 | 14 | 1011.2 |
| 20260503014700 | 91 | 94 | 1.7 | 2.6 | 0.00 | 0.00 | 0.00 | 13 | 1011.1 |
| 20260503014158 | 91 | 85 | 1.7 | 2.6 | 0.00 | 0.00 | 0.00 | 13 | 1011.2 |
| 20260503013655 | 91 | 109 | 1.7 | 4.3 | 0.00 | 0.00 | 0.00 | 13 | 1011.1 |
| 20260503013153 | 91 | 99 | 1.7 | 2.6 | 0.00 | 0.00 | 0.00 | 13 | 1010.9 |
| 20260503012649 | 91 | 94 | 1.7 | 3.5 | 0.00 | 0.00 | 0.00 | 13 | 1011.0 |
| 20260503012146 | 92 | 101 | 1.7 | 5.2 | 0.00 | 0.00 | 0.00 | 13 | 1011.1 |
| 20260503011643 | 93 | 97 | 1.7 | 3.5 | 0.00 | 0.00 | 0.00 | 13 | 1011.2 |
| 20260503011140 | 94 | 108 | 3.5 | 7.8 | 0.00 | 0.00 | 0.00 | 12 | 1011.0 |
| 20260503010636 | 94 | 85 | 1.7 | 4.3 | 0.00 | 0.00 | 0.00 | 12 | 1011.1 |
| 20260503010134 | 93 | 94 | 2.6 | 5.2 | 0.00 | 0.00 | 0.00 | 12 | 1011.1 |
| 20260503005631 | 94 | 107 | 2.6 | 7.0 | 0.00 | 0.00 | 0.00 | 12 | 1011.0 |
| 20260503005128 | 94 | 86 | 3.5 | 7.8 | 0.00 | 0.00 | 0.00 | 12 | 1011.0 |
| 20260503004624 | 94 | 93 | 2.6 | 5.2 | 0.00 | 0.00 | 0.00 | 12 | 1011.1 |
| 20260503004123 | 95 | 96 | 4.3 | 4.3 | 0.00 | 0.00 | 0.00 | 12 | 1011.0 |
| 20260503003619 | 95 | 80 | 2.6 | 2.6 | 0.00 | 0.00 | 0.00 | 12 | 1011.0 |
| 20260503003116 | 94 | 116 | 4.3 | 7.0 | 0.00 | 0.00 | 0.00 | 12 | 1011.2 |
| 20260503002613 | 94 | 104 | 3.5 | 5.2 | 0.00 | 0.00 | 0.00 | 12 | 1011.2 |
| 20260503002110 | 95 | 113 | 3.5 | 6.1 | 0.00 | 0.00 | 0.00 | 12 | 1011.1 |
| 20260503001606 | 94 | 106 | 5.2 | 11.3 | 0.00 | 0.00 | 0.00 | 12 | 1011.2 |
| 20260503001103 | 95 | 82 | 1.7 | 5.2 | 0.00 | 0.00 | 0.00 | 12 | 1011.0 |
| 20260503000600 | 95 | 78 | 3.5 | 8.7 | 0.00 | 0.00 | 0.00 | 12 | 1011.1 |
| 20260503000057 | 94 | 71 | 3.5 | 9.6 | 0.00 | 0.00 | 0.00 | 12 | 1011.3 |
| 20260502235554 | 95 | 87 | 6.1 | 9.6 | 0.00 | 0.00 | 0.00 | 12 | 1011.2 |
| 20260502235052 | 95 | 47 | 2.6 | 5.2 | 0.00 | 0.00 | 0.00 | 12 | 1011.2 |
| 20260502234548 | 95 | 61 | 1.7 | 4.3 | 0.00 | 0.00 | 0.00 | 12 | 1011.3 |
| 20260502234046 | 95 | 89 | 5.2 | 11.3 | 0.00 | 0.00 | 0.00 | 12 | 1011.2 |
| 20260502233546 | 97 | 192 | 3.5 | 3.5 | 0.00 | 0.00 | 0.00 | 11 | 1011.2 |
| 20260502233043 | 96 | 134 | 1.7 | 7.0 | 0.00 | 0.00 | 0.00 | 11 | 1011.3 |
| 20260502232534 | 98 | 192 | 1.7 | 3.5 | 0.00 | 0.00 | 0.00 | 11 | 1011.5 |
| 20260502232032 | 98 | 134 | 2.6 | 3.5 | 0.00 | 0.00 | 0.00 | 11 | 1011.5 |
| 20260502231528 | 97 | 80 | 1.7 | 3.5 | 0.00 | 0.00 | 0.00 | 11 | 1011.5 |
| 20260502231026 | 96 | 97 | 2.6 | 5.2 | 0.00 | 0.00 | 0.00 | 11 | 1011.5 |
| 20260502230524 | 96 | 94 | 3.5 | 5.2 | 0.00 | 0.00 | 0.00 | 11 | 1011.5 |
| 20260502230022 | 96 | 106 | 7.8 | 9.6 | 0.00 | 0.00 | 0.00 | 11 | 1011.6 |
| 20260502225522 | 96 | 59 | 2.6 | 4.3 | 0.00 | 0.00 | 0.00 | 12 | 1012.0 |
| 20260502225020 | 97 | 99 | 3.5 | 4.3 | 0.00 | 0.00 | 0.00 | 11 | 1012.0 |
| 20260502224516 | 97 | 47 | 1.7 | 4.3 | 0.00 | 0.00 | 0.00 | 11 | 1012.1 |
| 20260502224013 | 95 | 119 | 2.6 | 3.5 | 0.00 | 0.00 | 0.00 | 11 | 1012.3 |
| 20260502223511 | 96 | 33 | 0.9 | 1.7 | 0.00 | 0.00 | 0.00 | 11 | 1012.3 |
| 20260502223009 | 96 | 93 | 7.0 | 7.8 | 0.00 | 0.00 | 0.00 | 11 | 1012.2 |
| 20260502222506 | 97 | 122 | 5.2 | 7.8 | 0.00 | 0.00 | 0.00 | 11 | 1012.5 |
| 20260502222002 | 98 | 104 | 4.3 | 4.3 | 0.00 | 0.00 | 0.00 | 11 | 1012.6 |
| 20260502221458 | 98 | 257 | 1.7 | 6.1 | 0.00 | 0.00 | 0.00 | 11 | 1012.7 |
| 20260502220955 | 96 | 139 | 1.7 | 8.7 | 0.00 | 0.00 | 0.00 | 11 | 1012.9 |
| 20260502220451 | 97 | 104 | 0.0 | 5.2 | 0.00 | 0.00 | 0.00 | 11 | 1012.7 |
| 20260502215948 | 96 | 188 | 1.7 | 4.3 | 0.00 | 0.00 | 0.00 | 11 | 1013.0 |
| 20260502215445 | 95 | 114 | 3.5 | 11.3 | 0.00 | 0.00 | 0.00 | 11 | 1013.2 |
| 20260502214942 | 96 | 93 | 1.7 | 4.3 | 0.00 | 0.00 | 0.00 | 11 | 1013.2 |
| 20260502214439 | 96 | 101 | 3.5 | 4.3 | 0.00 | 0.00 | 0.00 | 11 | 1013.4 |
| 20260502213936 | 95 | 142 | 1.7 | 5.2 | 0.00 | 0.00 | 0.00 | 11 | 1013.5 |
| 20260502213432 | 96 | 103 | 4.3 | 11.3 | 0.00 | 0.00 | 0.00 | 11 | 1013.4 |
| 20260502212931 | 95 | 127 | 0.9 | 7.0 | 0.00 | 0.00 | 0.00 | 11 | 1013.2 |
| 20260502212430 | 96 | 106 | 7.8 | 12.2 | 0.00 | 0.00 | 0.00 | 11 | 1013.3 |
| 20260502211927 | 96 | 96 | 3.5 | 8.7 | 0.00 | 0.00 | 0.00 | 11 | 1013.4 |
| 20260502211422 | 96 | 174 | 1.7 | 4.3 | 0.00 | 0.00 | 0.00 | 11 | 1013.5 |
| 20260502210920 | 96 | 213 | 2.6 | 4.3 | 0.00 | 0.00 | 0.00 | 11 | 1013.7 |
| 20260502210417 | 96 | 119 | 3.5 | 3.5 | 0.00 | 0.00 | 0.00 | 11 | 1013.7 |
| 20260502205914 | 95 | 112 | 1.7 | 7.8 | 0.00 | 0.00 | 0.00 | 11 | 1013.8 |
| 20260502205410 | 95 | 98 | 1.7 | 9.6 | 0.00 | 0.00 | 0.00 | 11 | 1013.9 |
| 20260502204907 | 96 | 252 | 0.9 | 4.3 | 0.00 | 0.00 | 0.00 | 11 | 1013.7 |
| 20260502204404 | 96 | 66 | 3.5 | 7.8 | 0.00 | 0.00 | 0.00 | 11 | 1013.9 |
| 20260502203902 | 96 | 81 | 5.2 | 5.2 | 0.00 | 0.00 | 0.00 | 10 | 1013.9 |
| 20260502203359 | 95 | 92 | 2.6 | 5.2 | 0.00 | 0.00 | 0.00 | 10 | 1013.9 |
| 20260502202854 | 95 | 88 | 4.3 | 12.2 | 0.00 | 0.00 | 0.00 | 10 | 1014.0 |
| 20260502202352 | 95 | 102 | 2.6 | 5.2 | 0.00 | 0.00 | 0.00 | 11 | 1014.2 |
| 20260502201850 | 96 | 108 | 3.5 | 5.2 | 0.00 | 0.00 | 0.00 | 11 | 1014.3 |
| 20260502201346 | 96 | 102 | 5.2 | 11.3 | 0.00 | 0.00 | 0.00 | 11 | 1014.2 |
| 20260502200842 | 96 | 154 | 2.6 | 7.0 | 0.00 | 0.00 | 0.00 | 10 | 1014.3 |
| 20260502200338 | 94 | 99 | 3.5 | 7.8 | 0.00 | 0.00 | 0.00 | 11 | 1014.2 |
| 20260502195836 | 95 | 344 | 0.0 | 3.5 | 0.00 | 0.00 | 0.00 | 12 | 1014.4 |
| 20260502195333 | 96 | 85 | 3.5 | 6.1 | 0.00 | 0.00 | 0.00 | 10 | 1014.3 |
| 20260502194830 | 94 | 163 | 0.0 | 5.2 | 0.00 | 0.00 | 0.00 | 11 | 1014.6 |
| 20260502194327 | 95 | 192 | 1.7 | 7.8 | 0.00 | 0.00 | 0.00 | 10 | 1014.7 |
| 20260502193822 | 96 | 133 | 2.6 | 5.2 | 0.00 | 0.00 | 0.00 | 10 | 1014.9 |
| 20260502193320 | 95 | 114 | 3.5 | 7.8 | 0.00 | 0.00 | 0.00 | 10 | 1014.9 |
| 20260502192815 | 95 | 195 | 2.6 | 7.8 | 0.00 | 0.00 | 0.00 | 9 | 1014.9 |
| 20260502192312 | 96 | 101 | 5.2 | 6.1 | 0.00 | 0.00 | 0.00 | 10 | 1014.8 |
| 20260502191810 | 97 | 132 | 0.9 | 2.6 | 0.00 | 0.00 | 0.00 | 9 | 1014.8 |
| 20260502191308 | 95 | 253 | 1.7 | 2.6 | 0.00 | 0.00 | 0.00 | 10 | 1014.9 |
| 20260502190804 | 94 | 105 | 2.6 | 4.3 | 0.00 | 0.00 | 0.00 | 10 | 1015.1 |
| 20260502190302 | 95 | 86 | 3.5 | 8.7 | 0.00 | 0.00 | 0.00 | 10 | 1015.1 |
| 20260502185757 | 96 | 157 | 1.7 | 3.5 | 0.00 | 0.00 | 0.00 | 10 | 1015.1 |
| 20260502185253 | 95 | 156 | 2.6 | 13.9 | 0.00 | 0.00 | 0.00 | 11 | 1014.9 |
| 20260502184750 | 95 | 154 | 2.6 | 6.1 | 0.00 | 0.00 | 0.00 | 11 | 1015.0 |
| 20260502184246 | 95 | 135 | 0.0 | 4.3 | 0.00 | 0.00 | 0.00 | 10 | 1015.2 |
| 20260502183743 | 95 | 92 | 4.3 | 7.8 | 0.00 | 0.00 | 0.00 | 10 | 1015.3 |
| 20260502183239 | 94 | 104 | 2.6 | 5.2 | 0.00 | 0.00 | 0.00 | 11 | 1015.4 |
| 20260502182734 | 95 | 96 | 3.5 | 5.2 | 0.00 | 0.00 | 0.00 | 11 | 1015.5 |
| 20260502182230 | 94 | 190 | 0.9 | 4.3 | 0.00 | 0.00 | 0.00 | 11 | 1015.5 |
| 20260502181726 | 93 | 183 | 3.5 | 5.2 | 0.00 | 0.00 | 0.00 | 11 | 1015.6 |
| 20260502181220 | 94 | 117 | 1.7 | 5.2 | 0.00 | 0.00 | 0.00 | 11 | 1015.5 |
| 20260502180717 | 94 | 99 | 6.1 | 6.1 | 0.00 | 0.00 | 0.00 | 10 | 1015.5 |
| 20260502180214 | 92 | 286 | 4.3 | 4.3 | 0.00 | 0.00 | 0.00 | 11 | 1015.5 |
| 20260502170137 | 93 | 101 | 0.9 | 1.7 | 0.00 | 0.00 | 0.00 | 12 | 1015.6 |
| 20260502164124 | 91 | 91 | 3.5 | 4.3 | 0.00 | 0.00 | 0.00 | 16 | 1015.8 |
| 20260502163620 | 91 | 86 | 1.7 | 2.6 | 0.00 | 0.00 | 0.00 | 17 | 1015.9 |
| 20260502163117 | 91 | 80 | 0.9 | 2.6 | 0.00 | 0.00 | 0.00 | 17 | 1015.8 |
| 20260502162614 | 90 | 101 | 1.7 | 3.5 | 0.00 | 0.00 | 0.00 | 18 | 1015.8 |
| 20260502162111 | 90 | 93 | 1.7 | 2.6 | 0.00 | 0.00 | 0.00 | 18 | 1015.9 |
| 20260502161608 | 89 | 298 | 0.0 | 2.6 | 0.00 | 0.00 | 0.00 | 18 | 1015.8 |
| 20260502161105 | 89 | 67 | 1.7 | 2.6 | 0.00 | 0.00 | 0.00 | 19 | 1015.9 |
| 20260502160603 | 89 | 87 | 2.6 | 2.6 | 0.00 | 0.00 | 0.00 | 19 | 1015.9 |
| 20260502152010 | 84 | 76 | 0.0 | 0.9 | 0.00 | 0.00 | 0.00 | 22 | 1015.7 |
| 20260502151506 | 83 | 279 | 0.9 | 1.7 | 0.00 | 0.00 | 0.00 | 23 | 1015.8 |
| 20260502151004 | 84 | 205 | 0.0 | 0.9 | 0.00 | 0.00 | 0.00 | 23 | 1015.8 |
| 20260502150501 | 84 | 89 | 0.0 | 0.9 | 0.00 | 0.00 | 0.00 | 23 | 1015.8 |
| 20260502130346 | 66 | 247 | 1.7 | 3.5 | 0.00 | 0.00 | 0.00 | 33 | 1014.8 |
| 20260502123329 | 68 | 69 | 0.0 | 1.7 | 0.00 | 0.00 | 0.00 | 33 | 1014.7 |
| 20260502122826 | 68 | 293 | 0.0 | 3.5 | 0.00 | 0.00 | 0.00 | 34 | 1014.4 |
| 20260502122321 | 68 | 226 | 2.6 | 3.5 | 0.00 | 0.00 | 0.00 | 34 | 1014.4 |
| 20260502121821 | 66 | 60 | 1.7 | 1.7 | 0.00 | 0.00 | 0.00 | 35 | 1014.4 |
| 20260502121317 | 68 | 49 | 0.9 | 1.7 | 0.00 | 0.00 | 0.00 | 34 | 1014.5 |
| 20260502120814 | 68 | 95 | 1.7 | 2.6 | 0.00 | 0.00 | 0.00 | 33 | 1014.3 |
| 20260502120311 | 68 | 191 | 0.0 | 1.7 | 0.00 | 0.00 | 0.00 | 33 | 1014.2 |
| 20260502115809 | 66 | 202 | 0.0 | 0.9 | 0.00 | 0.00 | 0.00 | 34 | 1014.3 |
| 20260502115306 | 66 | 245 | 0.0 | 1.7 | 0.00 | 0.00 | 0.00 | 35 | 1014.1 |
| 20260502114801 | 66 | 168 | 0.9 | 1.7 | 0.00 | 0.00 | 0.00 | 35 | 1014.1 |
| 20260502114258 | 67 | 230 | 0.0 | 3.5 | 0.00 | 0.00 | 0.00 | 35 | 1014.1 |
| 20260502113755 | 68 | 277 | 0.0 | 1.7 | 0.00 | 0.00 | 0.00 | 35 | 1014.2 |
| 20260502113253 | 67 | 209 | 0.9 | 1.7 | 0.00 | 0.00 | 0.00 | 36 | 1014.3 |
| 20260502112751 | 66 | 260 | 1.7 | 2.6 | 0.00 | 0.00 | 0.00 | 37 | 1014.2 |
| 20260502112249 | 66 | 249 | 0.9 | 1.7 | 0.00 | 0.00 | 0.00 | 37 | 1014.2 |
| 20260502111745 | 66 | 232 | 0.0 | 2.6 | 0.00 | 0.00 | 0.00 | 38 | 1014.2 |
| 20260502111243 | 68 | 265 | 1.7 | 1.7 | 0.00 | 0.00 | 0.00 | 36 | 1014.3 |
| 20260502110740 | 69 | 134 | 0.0 | 1.7 | 0.00 | 0.00 | 0.00 | 37 | 1014.4 |
| 20260502110238 | 68 | 236 | 0.0 | 0.9 | 0.00 | 0.00 | 0.00 | 37 | 1014.2 |
| 20260502105736 | 67 | 240 | 0.0 | 0.9 | 0.00 | 0.00 | 0.00 | 37 | 1014.5 |
| 20260502105232 | 66 | 247 | 1.7 | 4.3 | 0.00 | 0.00 | 0.00 | 37 | 1014.2 |
| 20260502104730 | 67 | 245 | 2.6 | 2.6 | 0.00 | 0.00 | 0.00 | 36 | 1014.2 |
| 20260502104227 | 68 | 63 | 0.0 | 1.7 | 0.00 | 0.00 | 0.00 | 36 | 1014.4 |
| 20260502103725 | 69 | 95 | 2.6 | 2.6 | 0.00 | 0.00 | 0.00 | 35 | 1014.2 |
| 20260502103222 | 71 | 334 | 1.7 | 2.6 | 0.00 | 0.00 | 0.00 | 32 | 1014.0 |
| 20260502102719 | 73 | 343 | 2.6 | 3.5 | 0.00 | 0.00 | 0.00 | 29 | 1014.0 |
| 20260502102215 | 72 | 183 | 0.0 | 1.7 | 0.00 | 0.00 | 0.00 | 29 | 1013.8 |
| 20260502101714 | 70 | 134 | 0.0 | 1.7 | 0.00 | 0.00 | 0.00 | 31 | 1013.8 |
| 20260502101212 | 70 | 182 | 0.0 | 2.6 | 0.00 | 0.00 | 0.00 | 31 | 1013.9 |
| 20260502100709 | 70 | 108 | 0.0 | 1.7 | 0.00 | 0.00 | 0.00 | 33 | 1013.7 |
| 20260502100208 | 70 | 213 | 1.7 | 2.6 | 0.00 | 0.00 | 0.00 | 33 | 1013.6 |
| 20260502091142 | 70 | 133 | 0.0 | 0.9 | 0.00 | 0.00 | 0.00 | 36 | 1014.0 |
| 20260502090639 | 71 | 66 | 0.0 | 1.7 | 0.00 | 0.00 | 0.00 | 34 | 1013.9 |
| 20260502090136 | 71 | 210 | 0.9 | 1.7 | 0.00 | 0.00 | 0.00 | 35 | 1014.0 |
| 20260502071533 | 73 | 252 | 0.0 | 1.7 | 0.00 | 0.00 | 0.00 | 34 | 1014.2 |
| 20260502071031 | 73 | 6 | 0.0 | 1.7 | 0.00 | 0.00 | 0.00 | 35 | 1014.3 |
| 20260502070529 | 74 | 315 | 0.9 | 1.7 | 0.00 | 0.00 | 0.00 | 33 | 1014.2 |
| 20260502070027 | 76 | 329 | 0.0 | 3.5 | 0.00 | 0.00 | 0.00 | 31 | 1014.2 |
| 20260502065525 | 77 | 235 | 0.0 | 3.5 | 0.00 | 0.00 | 0.00 | 27 | 1014.1 |
| 20260502065023 | 78 | 221 | 1.7 | 4.3 | 0.00 | 0.00 | 0.00 | 26 | 1014.2 |
| 20260502064521 | 78 | 201 | 1.7 | 4.3 | 0.00 | 0.00 | 0.00 | 26 | 1014.3 |
| 20260502064018 | 77 | 221 | 1.7 | 3.5 | 0.00 | 0.00 | 0.00 | 28 | 1014.2 |
| 20260502063515 | 74 | 254 | 1.7 | 4.3 | 0.00 | 0.00 | 0.00 | 30 | 1014.3 |
| 20260502063013 | 74 | 230 | 0.0 | 1.7 | 0.00 | 0.00 | 0.00 | 30 | 1014.3 |
| 20260502062510 | 74 | 200 | 0.0 | 0.9 | 0.00 | 0.00 | 0.00 | 30 | 1014.4 |
| 20260502062009 | 76 | 139 | 0.0 | 1.7 | 0.00 | 0.00 | 0.00 | 29 | 1014.2 |
| 20260502061506 | 77 | 89 | 0.0 | 1.7 | 0.00 | 0.00 | 0.00 | 31 | 1014.1 |
| 20260502061003 | 78 | 338 | 0.9 | 2.6 | 0.00 | 0.00 | 0.00 | 31 | 1014.3 |
| 20260502060457 | 79 | 246 | 0.0 | 0.9 | 0.00 | 0.00 | 0.00 | 31 | 1014.1 |
| 20260502055954 | 79 | 104 | 2.6 | 2.6 | 0.00 | 0.00 | 0.00 | 30 | 1014.0 |
| 20260502055452 | 80 | 281 | 0.0 | 2.6 | 0.00 | 0.00 | 0.00 | 29 | 1014.2 |
| 20260502054946 | 81 | 185 | 1.7 | 2.6 | 0.00 | 0.00 | 0.00 | 28 | 1014.1 |
| 20260502054444 | 80 | 211 | 0.0 | 3.5 | 0.00 | 0.00 | 0.00 | 28 | 1013.8 |
| 20260502053941 | 80 | 205 | 0.9 | 3.5 | 0.00 | 0.00 | 0.00 | 28 | 1014.0 |
| 20260502053437 | 79 | 72 | 0.0 | 1.7 | 0.00 | 0.00 | 0.00 | 27 | 1013.9 |
| 20260502052935 | 79 | 259 | 0.9 | 2.6 | 0.00 | 0.00 | 0.00 | 28 | 1013.8 |
| 20260502052433 | 79 | 247 | 0.9 | 0.9 | 0.00 | 0.00 | 0.00 | 27 | 1014.0 |
| 20260502051932 | 80 | 53 | 1.7 | 2.6 | 0.00 | 0.00 | 0.00 | 27 | 1013.9 |
| 20260502051429 | 81 | 104 | 1.7 | 4.3 | 0.00 | 0.00 | 0.00 | 25 | 1013.9 |
| 20260502050926 | 82 | 279 | 0.9 | 1.7 | 0.00 | 0.00 | 0.00 | 24 | 1013.9 |
| 20260502050423 | 82 | 236 | 2.6 | 3.5 | 0.00 | 0.00 | 0.00 | 23 | 1013.8 |
| 20260502045920 | 81 | 62 | 1.7 | 1.7 | 0.00 | 0.00 | 0.00 | 26 | 1013.9 |
| 20260502045416 | 82 | 354 | 2.6 | 2.6 | 0.00 | 0.00 | 0.00 | 25 | 1013.6 |
| 20260502044914 | 83 | 291 | 0.9 | 2.6 | 0.00 | 0.00 | 0.00 | 24 | 1013.6 |
| 20260502044409 | 83 | 248 | 1.7 | 1.7 | 0.00 | 0.00 | 0.00 | 24 | 1013.6 |
| 20260502043906 | 84 | 300 | 1.7 | 4.3 | 0.00 | 0.00 | 0.00 | 22 | 1013.5 |
| 20260502043404 | 85 | 304 | 2.6 | 4.3 | 0.00 | 0.00 | 0.00 | 22 | 1013.7 |
| 20260502042903 | 85 | 267 | 2.6 | 6.1 | 0.00 | 0.00 | 0.00 | 22 | 1013.4 |
| 20260502042401 | 85 | 249 | 7.0 | 8.7 | 0.00 | 0.00 | 0.00 | 22 | 1013.4 |
| 20260502041858 | 85 | 241 | 5.2 | 6.1 | 0.00 | 0.00 | 0.00 | 22 | 1013.3 |
| 20260502041355 | 86 | 253 | 5.2 | 9.6 | 0.00 | 0.00 | 0.00 | 23 | 1013.4 |
| 20260502040853 | 86 | 233 | 2.6 | 10.4 | 0.00 | 0.00 | 0.00 | 23 | 1013.3 |
| 20260502040349 | 86 | 240 | 4.3 | 5.2 | 0.00 | 0.00 | 0.00 | 23 | 1013.2 |
| 20260502035845 | 86 | 244 | 4.3 | 9.6 | 0.00 | 0.00 | 0.00 | 23 | 1013.1 |
| 20260502035342 | 86 | 233 | 2.6 | 10.4 | 0.00 | 0.00 | 0.00 | 23 | 1013.0 |
| 20260502034839 | 86 | 253 | 6.1 | 8.7 | 0.00 | 0.00 | 0.00 | 23 | 1012.8 |
| 20260502034338 | 86 | 246 | 2.6 | 9.6 | 0.00 | 0.00 | 0.00 | 23 | 1012.8 |
| 20260502033836 | 86 | 262 | 7.8 | 10.4 | 0.00 | 0.00 | 0.00 | 23 | 1012.5 |
| 20260502033333 | 86 | 286 | 3.5 | 11.3 | 0.00 | 0.00 | 0.00 | 23 | 1012.5 |
| 20260502032830 | 86 | 268 | 3.5 | 7.8 | 0.00 | 0.00 | 0.00 | 24 | 1012.6 |
| 20260502032326 | 86 | 316 | 7.8 | 11.3 | 0.00 | 0.00 | 0.00 | 24 | 1012.4 |
| 20260502031824 | 86 | 274 | 4.3 | 15.6 | 0.00 | 0.00 | 0.00 | 25 | 1012.3 |
| 20260502031322 | 86 | 323 | 7.8 | 12.2 | 0.00 | 0.00 | 0.00 | 25 | 1012.2 |
| 20260502030820 | 86 | 316 | 8.7 | 13.0 | 0.00 | 0.00 | 0.00 | 26 | 1012.0 |
| 20260502030318 | 86 | 319 | 12.2 | 14.8 | 0.00 | 0.00 | 0.00 | 25 | 1012.3 |
| 20260502025815 | 87 | 284 | 7.0 | 15.6 | 0.00 | 0.00 | 0.00 | 24 | 1012.2 |
| 20260502025313 | 87 | 304 | 8.7 | 13.0 | 0.00 | 0.00 | 0.00 | 24 | 1011.8 |
| 20260502024810 | 87 | 309 | 7.8 | 13.0 | 0.00 | 0.00 | 0.00 | 22 | 1011.8 |
| 20260502024308 | 87 | 322 | 7.8 | 13.9 | 0.00 | 0.00 | 0.00 | 23 | 1012.0 |
| 20260502023805 | 87 | 302 | 7.8 | 12.2 | 0.00 | 0.00 | 0.00 | 23 | 1012.0 |
| 20260502023303 | 87 | 303 | 7.8 | 12.2 | 0.00 | 0.00 | 0.00 | 24 | 1011.7 |
| 20260502022800 | 87 | 312 | 7.8 | 13.0 | 0.00 | 0.00 | 0.00 | 24 | 1011.7 |
| 20260502022256 | 87 | 320 | 8.7 | 13.0 | 0.00 | 0.00 | 0.00 | 24 | 1011.8 |
| 20260502021753 | 87 | 286 | 4.3 | 15.6 | 0.00 | 0.00 | 0.00 | 25 | 1011.6 |
| 20260502021251 | 87 | 310 | 11.3 | 14.8 | 0.00 | 0.00 | 0.00 | 25 | 1011.6 |
| 20260502020748 | 88 | 297 | 11.3 | 13.0 | 0.00 | 0.00 | 0.00 | 24 | 1011.7 |
| 20260502020246 | 88 | 300 | 5.2 | 13.9 | 0.00 | 0.00 | 0.00 | 24 | 1011.7 |